Location: Aalen
(48.8330°N, 10.1000°E)
Time: 01:02:27
(UTC+02:00)

Transit 4A - Pass Details

Date: 07 August 2021
Orbit: 870 x 974 km, 66.8° (Epoch: 26 September)

Event Time Altitude Azimuth Distance (km) Brightness Sun altitude
Rises 03:15:42 0° 286° (WNW) 3,467 10.8 -20.3°
Reaches altitude 10° 03:19:21 10° 309° (NW) 2,526 10.3 -20.0°
Maximum altitude 03:22:41 15° 344° (NNW) 2,170 10.4 -19.8°
Drops below altitude 10° 03:26:01 10° 20° (NNE) 2,533 11.4 -19.5°
Sets 03:29:42 0° 43° (NE) 3,482 12.4 -19.2°
